TOM5PT EGKK-LEAL

Flight info

Callsign TOM5PT
Flight time 2h 5m
Altitude 35000
Route BOGNA L612 BENBO Y47 DRAKE L151 SITET UN859 SOPIL DCT BALAN DCT LMG DCT PIMQO DCT AGN DCT ANETO DCT POSSY DCT XIMPE DCT RIMES DCT SAURA DCT TATOS N860 PLANA DCT VLC
Aircraft B738/M-SDE2E3FGHIRWXY/LB1

Departure

Time 2026-04-14 14:50
Airport London Gatwick Airport (EGKK)

Arrival

Time 2026-04-14 16:55
Airport Alicante-Elche Miguel Hernández Airport (LEAL)
Time Latitude Longitude Altitude Speed Heading
2026-04-14 14:27 51.15838 -0.17633 200 ft 0 kts 347°
2026-04-14 14:40 51.15831 -0.17631 200 ft 2 kts 347°
2026-04-14 14:40 51.15816 -0.17625 200 ft 2 kts 347°
2026-04-14 14:40 51.15802 -0.17619 200 ft 2 kts 347°
2026-04-14 14:40 51.15787 -0.17614 200 ft 2 kts 347°
2026-04-14 14:41 51.15772 -0.17608 200 ft 2 kts 347°
2026-04-14 14:41 51.15757 -0.17608 200 ft 2 kts 26°
2026-04-14 14:41 51.15746 -0.17624 200 ft 1 kts 68°
2026-04-14 14:41 51.15744 -0.17635 200 ft 1 kts 82°
2026-04-14 14:42 51.15744 -0.17640 200 ft 0 kts 78°
2026-04-14 14:43 51.15748 -0.17611 200 ft 4 kts 78°
2026-04-14 14:43 51.15750 -0.17555 200 ft 6 kts 102°
2026-04-14 14:44 51.15711 -0.17500 200 ft 9 kts 160°
2026-04-14 14:44 51.15638 -0.17474 200 ft 12 kts 168°
2026-04-14 14:44 51.15545 -0.17440 200 ft 14 kts 166°
2026-04-14 14:44 51.15444 -0.17403 200 ft 15 kts 168°
2026-04-14 14:45 51.15337 -0.17368 200 ft 15 kts 169°
2026-04-14 14:45 51.15240 -0.17309 200 ft 14 kts 146°
2026-04-14 14:45 51.15186 -0.17196 200 ft 12 kts 94°
2026-04-14 14:45 51.15198 -0.17077 200 ft 10 kts 78°
2026-04-14 14:46 51.15213 -0.16962 200 ft 9 kts 78°
2026-04-14 14:46 51.15217 -0.16925 200 ft 0 kts 81°
2026-04-14 14:46 51.15219 -0.16897 200 ft 2 kts 89°
2026-04-14 14:47 51.15218 -0.16884 200 ft 0 kts 92°
2026-04-14 14:47 51.15217 -0.16854 200 ft 7 kts 98°
2026-04-14 14:47 51.15173 -0.16793 200 ft 10 kts 167°
2026-04-14 14:48 51.15122 -0.16818 200 ft 7 kts 237°
2026-04-14 14:48 51.15112 -0.16870 200 ft 1 kts 258°
2026-04-14 14:48 51.15111 -0.16873 200 ft 0 kts 258°
2026-04-14 14:49 51.15111 -0.16879 200 ft 2 kts 258°
2026-04-14 14:49 51.15076 -0.17133 200 ft 56 kts 258°
2026-04-14 14:50 51.14943 -0.18110 200 ft 119 kts 258°
2026-04-14 14:50 51.14726 -0.19684 202 ft 169 kts 257°
2026-04-14 14:50 51.14468 -0.21596 702 ft 173 kts 258°
2026-04-14 14:50 51.14256 -0.23509 1220 ft 182 kts 261°
2026-04-14 14:51 51.13990 -0.25615 1479 ft 208 kts 257°
2026-04-14 14:51 51.13626 -0.28103 1515 ft 243 kts 257°
2026-04-14 14:51 51.13229 -0.30812 1517 ft 254 kts 257°
2026-04-14 14:51 51.12819 -0.33598 1515 ft 256 kts 257°
2026-04-14 14:52 51.12416 -0.36339 1512 ft 255 kts 257°
2026-04-14 14:52 51.11964 -0.39110 1509 ft 255 kts 248°
2026-04-14 14:52 51.10906 -0.41326 1549 ft 252 kts 214°
2026-04-14 14:52 51.09258 -0.42227 1600 ft 250 kts 184°
2026-04-14 14:53 51.07522 -0.41858 1530 ft 256 kts 160°
2026-04-14 14:53 51.05841 -0.40683 1660 ft 267 kts 156°
2026-04-14 14:53 51.04149 -0.39480 2700 ft 264 kts 156°
2026-04-14 14:53 51.02468 -0.38304 3529 ft 269 kts 156°
2026-04-14 14:54 51.00755 -0.37110 4472 ft 267 kts 156°
2026-04-14 14:54 50.99062 -0.35932 5271 ft 270 kts 156°
2026-04-14 14:54 50.97317 -0.34721 6078 ft 273 kts 156°
2026-04-14 14:54 50.95560 -0.33502 6845 ft 276 kts 156°
2026-04-14 14:55 50.93796 -0.32281 7583 ft 279 kts 156°
2026-04-14 14:55 50.92004 -0.31040 8307 ft 282 kts 156°
2026-04-14 14:55 50.90189 -0.29786 9030 ft 284 kts 156°
2026-04-14 14:55 50.88372 -0.28531 9717 ft 287 kts 156°
2026-04-14 14:56 50.84654 -0.25966 11049 ft 293 kts 156°
2026-04-14 14:56 50.82775 -0.24672 11684 ft 296 kts 156°
2026-04-14 14:56 50.80877 -0.23366 12300 ft 299 kts 156°
2026-04-14 14:57 50.78940 -0.22034 12907 ft 301 kts 156°
2026-04-14 14:57 50.77001 -0.20702 13491 ft 304 kts 156°
2026-04-14 14:57 50.75039 -0.19356 14062 ft 307 kts 156°
2026-04-14 14:57 50.73078 -0.18010 14611 ft 309 kts 156°
2026-04-14 14:58 50.71097 -0.16654 15146 ft 312 kts 156°
2026-04-14 14:58 50.69091 -0.15280 15669 ft 314 kts 156°
2026-04-14 14:58 50.67065 -0.13895 16177 ft 317 kts 156°
2026-04-14 14:58 50.65033 -0.12507 16671 ft 319 kts 156°
2026-04-14 14:59 50.62973 -0.11100 17154 ft 321 kts 156°
2026-04-14 14:59 50.60892 -0.09682 17626 ft 324 kts 156°
2026-04-14 14:59 50.58807 -0.08262 18083 ft 326 kts 156°
2026-04-14 14:59 50.56706 -0.06832 18528 ft 328 kts 156°
2026-04-14 15:00 50.54589 -0.05392 18961 ft 330 kts 156°
2026-04-14 15:00 50.52465 -0.03950 19382 ft 333 kts 156°
2026-04-14 15:00 50.50343 -0.02510 19789 ft 335 kts 156°
2026-04-14 15:00 50.48171 -0.01070 20189 ft 337 kts 160°
2026-04-14 15:01 50.45906 -0.00067 20561 ft 339 kts 171°
2026-04-14 15:01 50.43550 0.00166 20934 ft 341 kts 184°
2026-04-14 15:01 50.41183 -0.00402 21315 ft 342 kts 192°
2026-04-14 15:01 50.38829 -0.01260 21683 ft 344 kts 193°
2026-04-14 15:02 50.36475 -0.02101 22020 ft 347 kts 193°
2026-04-14 15:02 50.34107 -0.02938 22369 ft 348 kts 193°
2026-04-14 15:02 50.31750 -0.03775 22695 ft 350 kts 193°
2026-04-14 15:02 50.29328 -0.04636 23029 ft 352 kts 193°
2026-04-14 15:03 50.26929 -0.05488 23344 ft 354 kts 193°
2026-04-14 15:03 50.24503 -0.06310 23654 ft 356 kts 189°
2026-04-14 15:03 50.22006 -0.06654 23940 ft 358 kts 179°
2026-04-14 15:03 50.19541 -0.06211 24226 ft 359 kts 166°
2026-04-14 15:04 50.17147 -0.04945 24523 ft 360 kts 156°
2026-04-14 15:04 50.14862 -0.03349 24817 ft 362 kts 156°
2026-04-14 15:04 50.12534 -0.01727 25075 ft 364 kts 156°
2026-04-14 15:04 50.10194 -0.00279 25361 ft 365 kts 162°
2026-04-14 15:05 50.07731 0.00809 25667 ft 365 kts 166°
2026-04-14 15:05 50.05251 0.01799 25973 ft 365 kts 165°
2026-04-14 15:05 50.02804 0.02786 26270 ft 365 kts 165°
2026-04-14 15:05 50.00306 0.03789 26575 ft 364 kts 165°
2026-04-14 15:06 49.97854 0.04765 26870 ft 364 kts 166°
2026-04-14 15:06 49.95382 0.05745 27163 ft 363 kts 166°
2026-04-14 15:06 49.92948 0.06707 27445 ft 363 kts 166°
2026-04-14 15:06 49.90482 0.07678 27726 ft 362 kts 166°
2026-04-14 15:07 49.88047 0.08636 27995 ft 362 kts 166°
2026-04-14 15:07 49.85590 0.09600 28262 ft 361 kts 166°
2026-04-14 15:07 49.83133 0.10562 28523 ft 361 kts 166°
2026-04-14 15:07 49.80701 0.11513 28775 ft 361 kts 166°
2026-04-14 15:08 49.78255 0.12469 29023 ft 360 kts 166°
2026-04-14 15:08 49.75802 0.13426 28960 ft 370 kts 166°
2026-04-14 15:08 49.70681 0.15420 29102 ft 383 kts 166°
2026-04-14 15:09 49.68088 0.16430 29372 ft 386 kts 165°
2026-04-14 15:09 49.65477 0.17473 29640 ft 389 kts 165°
2026-04-14 15:09 49.62822 0.18550 29963 ft 390 kts 165°
2026-04-14 15:09 49.60206 0.19607 30296 ft 391 kts 165°
2026-04-14 15:10 49.57563 0.20672 30648 ft 391 kts 165°
2026-04-14 15:10 49.54940 0.21728 30999 ft 391 kts 165°
2026-04-14 15:10 49.52271 0.22801 31369 ft 391 kts 165°
2026-04-14 15:10 49.49656 0.23850 31725 ft 390 kts 165°
2026-04-14 15:11 49.47016 0.24908 32081 ft 389 kts 165°
2026-04-14 15:11 49.44426 0.25946 32423 ft 389 kts 165°
2026-04-14 15:11 49.41803 0.26994 32761 ft 388 kts 165°
2026-04-14 15:11 49.39196 0.28036 33087 ft 387 kts 165°
2026-04-14 15:12 49.36553 0.29090 33409 ft 387 kts 165°
2026-04-14 15:12 49.33968 0.30120 33716 ft 386 kts 165°
2026-04-14 15:12 49.31363 0.31158 34016 ft 386 kts 165°
2026-04-14 15:12 49.28773 0.32221 34307 ft 385 kts 164°
2026-04-14 15:13 49.26168 0.33329 34593 ft 384 kts 164°
2026-04-14 15:13 49.23580 0.34427 34869 ft 384 kts 164°
2026-04-14 15:13 49.20998 0.35517 35006 ft 387 kts 164°
2026-04-14 15:13 49.18358 0.36630 35004 ft 392 kts 164°
2026-04-14 15:14 49.13096 0.38843 34997 ft 390 kts 164°
2026-04-14 15:14 49.07861 0.41039 35000 ft 387 kts 164°
2026-04-14 15:15 49.02641 0.43223 35000 ft 388 kts 164°
2026-04-14 15:15 48.97378 0.45420 35000 ft 389 kts 164°
2026-04-14 15:16 48.92159 0.47594 35000 ft 388 kts 164°
2026-04-14 15:16 48.86940 0.49763 35000 ft 388 kts 164°
2026-04-14 15:17 48.81690 0.51940 34999 ft 388 kts 164°
2026-04-14 15:17 48.76435 0.54080 35000 ft 388 kts 165°
2026-04-14 15:18 48.71178 0.56131 35000 ft 388 kts 165°
2026-04-14 15:18 48.65938 0.58180 34999 ft 388 kts 165°
2026-04-14 15:19 48.60711 0.60221 34999 ft 388 kts 165°
2026-04-14 15:19 48.55459 0.62268 35000 ft 388 kts 165°
2026-04-14 15:20 48.50232 0.64322 34999 ft 388 kts 164°
2026-04-14 15:20 48.45011 0.66457 35000 ft 388 kts 165°
2026-04-14 15:21 48.39816 0.68571 34999 ft 387 kts 165°
2026-04-14 15:21 48.34555 0.70705 34999 ft 387 kts 165°
2026-04-14 15:22 48.29342 0.72814 35000 ft 387 kts 165°
2026-04-14 15:22 48.24136 0.74912 35002 ft 390 kts 165°
2026-04-14 15:23 48.18758 0.77029 35003 ft 404 kts 165°
2026-04-14 15:23 48.13224 0.79204 35000 ft 418 kts 165°
2026-04-14 15:24 48.07480 0.81456 35000 ft 431 kts 165°
2026-04-14 15:24 48.01619 0.83751 35000 ft 442 kts 165°
2026-04-14 15:25 47.95537 0.86125 35000 ft 453 kts 165°
2026-04-14 15:25 47.89382 0.88523 35000 ft 463 kts 165°
2026-04-14 15:26 47.83118 0.90957 34999 ft 466 kts 165°
2026-04-14 15:26 47.76830 0.93394 34998 ft 464 kts 165°
2026-04-14 15:27 47.70557 0.95820 34999 ft 463 kts 165°
2026-04-14 15:27 47.64299 0.98233 34999 ft 463 kts 165°
2026-04-14 15:28 47.58014 1.00651 34999 ft 464 kts 165°
2026-04-14 15:28 47.51774 1.03046 34999 ft 464 kts 165°
2026-04-14 15:29 47.45476 1.05342 34998 ft 464 kts 169°
2026-04-14 15:29 47.39053 1.06261 35000 ft 463 kts 180°
2026-04-14 15:30 47.32592 1.06127 35000 ft 464 kts 180°
2026-04-14 15:30 47.26096 1.06008 34999 ft 464 kts 181°
2026-04-14 15:31 47.19612 1.05874 34999 ft 464 kts 181°
2026-04-14 15:31 47.13111 1.05732 34999 ft 464 kts 181°
2026-04-14 15:32 47.06639 1.05587 35000 ft 464 kts 181°
2026-04-14 15:32 47.00166 1.05419 34999 ft 464 kts 181°
2026-04-14 15:33 46.93704 1.05132 34999 ft 464 kts 181°
2026-04-14 15:33 46.87239 1.04850 35000 ft 464 kts 181°
2026-04-14 15:34 46.80744 1.04570 35000 ft 464 kts 181°
2026-04-14 15:34 46.74252 1.04293 34999 ft 464 kts 181°
2026-04-14 15:35 46.67806 1.04018 35000 ft 464 kts 181°
2026-04-14 15:35 46.61322 1.03744 35000 ft 464 kts 181°
2026-04-14 15:36 46.54834 1.03469 34999 ft 464 kts 181°
2026-04-14 15:36 46.48342 1.03251 34999 ft 464 kts 180°
2026-04-14 15:37 46.41851 1.03203 35000 ft 464 kts 180°
2026-04-14 15:37 46.35416 1.03140 35000 ft 464 kts 180°
2026-04-14 15:38 46.28892 1.03073 34999 ft 464 kts 180°
2026-04-14 15:38 46.22420 1.03004 35000 ft 464 kts 180°
2026-04-14 15:39 46.15955 1.02934 35000 ft 464 kts 180°
2026-04-14 15:39 46.09471 1.02863 35000 ft 464 kts 180°
2026-04-14 15:40 46.03016 1.02793 35000 ft 464 kts 180°
2026-04-14 15:40 45.96530 1.02722 34999 ft 464 kts 180°
2026-04-14 15:41 45.90030 1.02651 35000 ft 464 kts 180°
2026-04-14 15:41 45.83598 1.02642 34999 ft 464 kts 178°
2026-04-14 15:42 45.77173 1.03825 35001 ft 464 kts 170°
2026-04-14 15:42 45.70775 1.05433 35000 ft 464 kts 170°
2026-04-14 15:43 45.64373 1.07037 34999 ft 464 kts 170°
2026-04-14 15:43 45.58015 1.08645 34999 ft 464 kts 170°
2026-04-14 15:44 45.51640 1.10264 35000 ft 464 kts 170°
2026-04-14 15:44 45.45231 1.11893 35000 ft 464 kts 169°
2026-04-14 15:45 45.38864 1.13511 34999 ft 464 kts 169°
2026-04-14 15:45 45.32477 1.15131 35000 ft 464 kts 169°
2026-04-14 15:46 45.26122 1.16740 35000 ft 464 kts 169°
2026-04-14 15:46 45.19726 1.18304 34998 ft 464 kts 173°
2026-04-14 15:47 45.13295 1.18532 34998 ft 463 kts 186°
2026-04-14 15:47 45.06897 1.16980 35001 ft 464 kts 190°
2026-04-14 15:48 45.00513 1.15345 34999 ft 464 kts 190°
2026-04-14 15:48 44.94136 1.13719 34999 ft 464 kts 190°
2026-04-14 15:49 44.87772 1.12097 35000 ft 464 kts 190°
2026-04-14 15:49 44.81399 1.10475 34999 ft 464 kts 190°
2026-04-14 15:50 44.75033 1.08857 35000 ft 464 kts 190°
2026-04-14 15:50 44.68648 1.07238 34999 ft 464 kts 190°
2026-04-14 15:51 44.62268 1.05623 35000 ft 464 kts 190°
2026-04-14 15:51 44.55927 1.04022 35000 ft 464 kts 190°
2026-04-14 15:52 44.49530 1.02410 34999 ft 464 kts 190°
2026-04-14 15:52 44.43183 1.00815 35000 ft 464 kts 190°
2026-04-14 15:53 44.36792 0.99212 35000 ft 464 kts 190°
2026-04-14 15:53 44.30404 0.97613 34999 ft 464 kts 190°
2026-04-14 15:54 44.20849 0.95228 35000 ft 464 kts 190°
2026-04-14 15:55 44.14486 0.93644 35000 ft 464 kts 190°
2026-04-14 15:55 44.10057 0.92599 35100 ft 457 kts 196°
2026-04-14 15:56 44.03869 0.91844 35173 ft 439 kts 194°
2026-04-14 15:56 43.97881 0.90416 35187 ft 435 kts 201°
2026-04-14 15:57 43.91960 0.88484 35181 ft 437 kts 200°
2026-04-14 15:57 43.86008 0.86858 35184 ft 434 kts 200°
2026-04-14 15:58 43.80054 0.85164 35185 ft 438 kts 199°
2026-04-14 15:58 43.74031 0.83511 35180 ft 439 kts 199°
2026-04-14 15:59 43.68042 0.81891 35182 ft 438 kts 199°
2026-04-14 15:59 43.62038 0.80279 35182 ft 438 kts 199°
2026-04-14 16:00 43.56027 0.78675 35181 ft 437 kts 199°
2026-04-14 16:00 43.50043 0.77082 35183 ft 439 kts 199°
2026-04-14 16:01 43.44016 0.75483 35181 ft 439 kts 199°
2026-04-14 16:01 43.38021 0.73898 35181 ft 438 kts 199°
2026-04-14 16:02 43.31993 0.72310 35185 ft 438 kts 199°
2026-04-14 16:02 43.26039 0.70743 35195 ft 438 kts 199°
2026-04-14 16:03 43.20016 0.69161 35206 ft 439 kts 199°
2026-04-14 16:03 43.14001 0.67587 35209 ft 438 kts 199°
2026-04-14 16:04 43.08004 0.66016 35210 ft 438 kts 199°
2026-04-14 16:04 43.02014 0.64453 35208 ft 438 kts 199°
2026-04-14 16:05 42.95976 0.62859 35210 ft 441 kts 197°
2026-04-14 16:05 42.89938 0.61266 35210 ft 446 kts 196°
2026-04-14 16:06 42.83746 0.59639 35201 ft 449 kts 195°
2026-04-14 16:06 42.77642 0.58051 35178 ft 448 kts 195°
2026-04-14 16:07 42.71543 0.56299 35162 ft 444 kts 200°
2026-04-14 16:07 42.65774 0.53344 35173 ft 440 kts 208°
2026-04-14 16:08 42.60207 0.49900 35191 ft 440 kts 208°
2026-04-14 16:08 42.54605 0.46393 35206 ft 440 kts 209°
2026-04-14 16:09 42.49063 0.42895 35160 ft 441 kts 209°
2026-04-14 16:09 42.43491 0.39366 35103 ft 440 kts 209°
2026-04-14 16:10 42.37930 0.35842 35051 ft 440 kts 209°
2026-04-14 16:10 42.32381 0.32328 35047 ft 441 kts 208°
2026-04-14 16:11 42.26816 0.28811 35047 ft 440 kts 208°
2026-04-14 16:11 42.21255 0.25300 35046 ft 441 kts 208°
2026-04-14 16:12 42.15709 0.21802 35047 ft 441 kts 208°
2026-04-14 16:12 42.10102 0.18304 35047 ft 442 kts 207°
2026-04-14 16:13 42.04251 0.15711 35045 ft 449 kts 194°
2026-04-14 16:13 41.97999 0.14658 35048 ft 451 kts 191°
2026-04-14 16:14 41.91783 0.13673 35047 ft 451 kts 191°
2026-04-14 16:14 41.85564 0.12711 35047 ft 451 kts 191°
2026-04-14 16:15 41.79351 0.11764 35047 ft 451 kts 191°
2026-04-14 16:15 41.73098 0.10823 35046 ft 451 kts 191°
2026-04-14 16:16 41.66857 0.09889 35046 ft 451 kts 191°
2026-04-14 16:16 41.60603 0.08957 35047 ft 451 kts 191°
2026-04-14 16:17 41.54362 0.08030 35046 ft 451 kts 191°
2026-04-14 16:17 41.48148 0.07110 35047 ft 451 kts 191°
2026-04-14 16:18 41.41902 0.06187 35047 ft 450 kts 191°
2026-04-14 16:18 41.35665 0.05268 35047 ft 451 kts 191°
2026-04-14 16:19 41.29413 0.04348 35047 ft 451 kts 191°
2026-04-14 16:19 41.23152 0.03429 35047 ft 451 kts 191°
2026-04-14 16:20 41.16917 0.02516 35047 ft 451 kts 191°
2026-04-14 16:20 41.10642 0.01597 35048 ft 451 kts 190°
2026-04-14 16:21 41.04387 0.00677 35064 ft 451 kts 189°
2026-04-14 16:21 40.98134 -0.00244 35086 ft 454 kts 188°
2026-04-14 16:22 40.91834 -0.01169 35102 ft 456 kts 188°
2026-04-14 16:22 40.85506 -0.02090 35100 ft 456 kts 188°
2026-04-14 16:23 40.79233 -0.03001 35100 ft 455 kts 188°
2026-04-14 16:23 40.72932 -0.03914 35101 ft 455 kts 188°
2026-04-14 16:24 40.66608 -0.04828 35101 ft 455 kts 188°
2026-04-14 16:24 40.60324 -0.05734 35101 ft 455 kts 188°
2026-04-14 16:25 40.54093 -0.07275 35101 ft 453 kts 197°
2026-04-14 16:25 40.48022 -0.09604 35101 ft 453 kts 198°
2026-04-14 16:26 40.41970 -0.11940 35101 ft 453 kts 198°
2026-04-14 16:26 40.35937 -0.14293 35101 ft 453 kts 198°
2026-04-14 16:27 40.29905 -0.16655 35101 ft 453 kts 198°
2026-04-14 16:27 40.23846 -0.19032 35101 ft 453 kts 198°
2026-04-14 16:28 40.17813 -0.21397 35093 ft 445 kts 198°
2026-04-14 16:28 40.14936 -0.22523 35093 ft 429 kts 198°
2026-04-14 16:28 40.12107 -0.23628 35087 ft 412 kts 198°
2026-04-14 16:28 40.09411 -0.24682 34851 ft 401 kts 198°
2026-04-14 16:29 40.06788 -0.25709 34602 ft 391 kts 198°
2026-04-14 16:29 40.04203 -0.26720 34350 ft 382 kts 198°
2026-04-14 16:29 40.01681 -0.27705 34098 ft 373 kts 198°
2026-04-14 16:29 39.99205 -0.28672 33732 ft 368 kts 198°
2026-04-14 16:30 39.96773 -0.29622 33214 ft 367 kts 198°
2026-04-14 16:30 39.94320 -0.30579 32648 ft 368 kts 198°
2026-04-14 16:30 39.91848 -0.31543 32066 ft 369 kts 198°
2026-04-14 16:30 39.89390 -0.32500 31469 ft 370 kts 198°
2026-04-14 16:31 39.86941 -0.33453 30870 ft 371 kts 198°
2026-04-14 16:31 39.84494 -0.34405 30404 ft 368 kts 198°
2026-04-14 16:31 39.82029 -0.35363 29956 ft 365 kts 198°
2026-04-14 16:31 39.79620 -0.36298 29513 ft 362 kts 199°
2026-04-14 16:32 39.77230 -0.37226 29073 ft 359 kts 198°
2026-04-14 16:32 39.74836 -0.38154 28633 ft 356 kts 199°
2026-04-14 16:32 39.72469 -0.39072 28200 ft 357 kts 199°
2026-04-14 16:32 39.70071 -0.40002 27758 ft 359 kts 199°
2026-04-14 16:33 39.67680 -0.40927 27316 ft 356 kts 199°
2026-04-14 16:33 39.65335 -0.41833 26885 ft 352 kts 199°
2026-04-14 16:33 39.63017 -0.42729 26460 ft 349 kts 199°
2026-04-14 16:33 39.60668 -0.43636 26029 ft 346 kts 199°
2026-04-14 16:34 39.58365 -0.44525 25608 ft 343 kts 199°
2026-04-14 16:34 39.56101 -0.45398 25194 ft 340 kts 199°
2026-04-14 16:34 39.53853 -0.46264 24783 ft 337 kts 199°
2026-04-14 16:34 39.51575 -0.47142 24371 ft 340 kts 199°
2026-04-14 16:35 39.49290 -0.48023 23949 ft 340 kts 199°
2026-04-14 16:35 39.47041 -0.48862 23533 ft 337 kts 198°
2026-04-14 16:35 39.44787 -0.49661 23121 ft 334 kts 197°
2026-04-14 16:35 39.42555 -0.50454 22717 ft 331 kts 197°
2026-04-14 16:36 39.40326 -0.51249 22315 ft 328 kts 197°
2026-04-14 16:36 39.38143 -0.52026 21921 ft 325 kts 197°
2026-04-14 16:36 39.35952 -0.52807 21526 ft 322 kts 197°
2026-04-14 16:36 39.33797 -0.53575 21141 ft 326 kts 197°
2026-04-14 16:37 39.31591 -0.54361 20740 ft 325 kts 197°
2026-04-14 16:37 39.29440 -0.55126 20352 ft 322 kts 197°
2026-04-14 16:37 39.27284 -0.55892 19964 ft 319 kts 197°
2026-04-14 16:37 39.25125 -0.56659 19577 ft 316 kts 197°
2026-04-14 16:38 39.23000 -0.57414 19196 ft 313 kts 197°
2026-04-14 16:38 39.20926 -0.58150 18825 ft 310 kts 197°
2026-04-14 16:38 39.18818 -0.58899 18453 ft 315 kts 197°
2026-04-14 16:38 39.16700 -0.59650 18069 ft 313 kts 197°
2026-04-14 16:39 39.14607 -0.60391 17696 ft 310 kts 197°
2026-04-14 16:39 39.12542 -0.61122 17328 ft 307 kts 197°
2026-04-14 16:39 39.10490 -0.61848 16962 ft 304 kts 197°
2026-04-14 16:39 39.08434 -0.62575 16597 ft 301 kts 197°
2026-04-14 16:40 39.06411 -0.63290 16242 ft 304 kts 197°
2026-04-14 16:40 39.04382 -0.64008 15879 ft 304 kts 197°
2026-04-14 16:40 39.02344 -0.64727 15518 ft 301 kts 197°
2026-04-14 16:40 39.00331 -0.65436 15167 ft 298 kts 197°
2026-04-14 16:41 38.98325 -0.66144 14819 ft 295 kts 196°
2026-04-14 16:41 38.96372 -0.66832 14480 ft 292 kts 196°
2026-04-14 16:41 38.94402 -0.67525 14139 ft 288 kts 196°
2026-04-14 16:41 38.92480 -0.68202 13811 ft 286 kts 196°
2026-04-14 16:42 38.90543 -0.68883 13480 ft 291 kts 196°
2026-04-14 16:42 38.88578 -0.69574 13136 ft 287 kts 196°
2026-04-14 16:42 38.86659 -0.70248 12804 ft 284 kts 196°
2026-04-14 16:42 38.84764 -0.70913 12472 ft 281 kts 196°
2026-04-14 16:43 38.82890 -0.71571 12143 ft 278 kts 196°
2026-04-14 16:43 38.80994 -0.72236 11816 ft 284 kts 196°
2026-04-14 16:43 38.79095 -0.72902 11477 ft 281 kts 196°
2026-04-14 16:43 38.77213 -0.73561 11146 ft 278 kts 196°
2026-04-14 16:44 38.75362 -0.74209 10822 ft 275 kts 196°
2026-04-14 16:44 38.73516 -0.74855 10500 ft 271 kts 196°
2026-04-14 16:44 38.71699 -0.75491 10182 ft 268 kts 196°
2026-04-14 16:45 38.68089 -0.76753 9551 ft 271 kts 195°
2026-04-14 16:45 38.66258 -0.77392 9231 ft 268 kts 196°
2026-04-14 16:45 38.64476 -0.78014 8920 ft 264 kts 196°
2026-04-14 16:45 38.62699 -0.78636 8611 ft 261 kts 195°
2026-04-14 16:46 38.60974 -0.79240 8311 ft 259 kts 195°
2026-04-14 16:46 38.59179 -0.79865 7999 ft 263 kts 195°
2026-04-14 16:46 38.57415 -0.80473 7688 ft 260 kts 195°
2026-04-14 16:46 38.55694 -0.81079 7469 ft 253 kts 195°
2026-04-14 16:47 38.54031 -0.81656 7399 ft 240 kts 193°
2026-04-14 16:47 38.52426 -0.82068 7325 ft 229 kts 189°
2026-04-14 16:47 38.50829 -0.82392 7259 ft 238 kts 189°
2026-04-14 16:47 38.49208 -0.82749 7165 ft 230 kts 190°
2026-04-14 16:48 38.47591 -0.83108 6921 ft 238 kts 190°
2026-04-14 16:48 38.45968 -0.83474 6632 ft 236 kts 190°
2026-04-14 16:48 38.44341 -0.83837 6351 ft 234 kts 190°
2026-04-14 16:48 38.42739 -0.84203 5991 ft 235 kts 189°
2026-04-14 16:49 38.41108 -0.84583 5698 ft 233 kts 189°
2026-04-14 16:49 38.39524 -0.84925 5517 ft 226 kts 189°
2026-04-14 16:49 38.37996 -0.85275 5338 ft 220 kts 189°
2026-04-14 16:49 38.36493 -0.85602 5154 ft 218 kts 188°
2026-04-14 16:50 38.34989 -0.85931 4912 ft 215 kts 188°
2026-04-14 16:50 38.33512 -0.85852 4697 ft 213 kts 160°
2026-04-14 16:50 38.32330 -0.84774 4464 ft 211 kts 121°
2026-04-14 16:50 38.31885 -0.83030 4198 ft 205 kts 94°
2026-04-14 16:51 38.31688 -0.81222 3911 ft 207 kts 97°
2026-04-14 16:51 38.31463 -0.79402 3617 ft 204 kts 97°
2026-04-14 16:51 38.31238 -0.77625 3340 ft 199 kts 98°
2026-04-14 16:51 38.31009 -0.75948 3104 ft 185 kts 98°
2026-04-14 16:52 38.30797 -0.74374 2802 ft 174 kts 101°
2026-04-14 16:52 38.30586 -0.72862 2618 ft 173 kts 102°
2026-04-14 16:52 38.30372 -0.71329 2335 ft 171 kts 100°
2026-04-14 16:52 38.30175 -0.69883 2084 ft 161 kts 102°
2026-04-14 16:53 38.29982 -0.68509 1876 ft 150 kts 100°
2026-04-14 16:53 38.29800 -0.67185 1695 ft 152 kts 101°
2026-04-14 16:53 38.29617 -0.65865 1502 ft 150 kts 100°
2026-04-14 16:53 38.29435 -0.64554 1305 ft 151 kts 102°
2026-04-14 16:54 38.29251 -0.63236 1074 ft 148 kts 99°
2026-04-14 16:54 38.29072 -0.61944 873 ft 148 kts 101°
2026-04-14 16:54 38.28892 -0.60642 671 ft 149 kts 102°
2026-04-14 16:54 38.28705 -0.59360 472 ft 147 kts 98°
2026-04-14 16:55 38.28532 -0.58060 278 ft 146 kts 98°
2026-04-14 16:55 38.28355 -0.56803 133 ft 134 kts 99°
2026-04-14 16:55 38.28227 -0.55868 94 ft 67 kts 97°
2026-04-14 16:55 38.28247 -0.55534 90 ft 17 kts 71°
2026-04-14 16:56 38.28280 -0.55423 87 ft 2 kts 69°
2026-04-14 16:56 38.28283 -0.55413 87 ft 4 kts 69°
2026-04-14 16:56 38.28304 -0.55340 84 ft 11 kts 69°
2026-04-14 16:57 38.28342 -0.55236 81 ft 12 kts 55°
2026-04-14 16:57 38.28398 -0.55156 77 ft 10 kts 14°
2026-04-14 16:57 38.28426 -0.55172 78 ft 0 kts 306°
2026-04-14 16:57 38.28439 -0.55187 79 ft 4 kts 331°
2026-04-14 16:58 38.28476 -0.55186 79 ft 5 kts 12°
2026-04-14 16:58 38.28508 -0.55178 79 ft 3 kts 11°
2026-04-14 16:58 38.28515 -0.55176 79 ft 0 kts